SB KEPS @ AMSAT $ORB13346.N 2Line Orbital Elements 13346.AMSAT
HR AMSAT ORBITAL ELEMENTS FOR AMATEUR SATELLITES IN NASA FORMAT FROM WA5QGD FORT WORTH,TX December 12, 2013 BID: ORB13346.N
DECODE 2-LINE ELSETS WITH THE FOLLOWING KEY: 1 AAAAAU 00 0 0 BBBBB.BBBBBBBB .CCCCCCCC 00000-0 00000-0 0 DDDZ 2 AAAAA EEE.EEEE FFF.FFFF GGGGGGG HHH.HHHH III.IIII JJ.JJJJJJJJKKKKKZ KEY: A-CATALOGNUM B-EPOCHTIME C-DECAY D-ELSETNUM E-INCLINATION F-RAAN G-ECCENTRICITY H-ARGPERIGEE I-MNANOM J-MNMOTION K-ORBITNUM Z-CHECKSUM
TO ALL RADIO AMATEURS BT
AO-07 1 07530U 74089B 13346.48486199 -.00000038 00000-0 35443-4 0 8454 2 07530 101.4507 329.6349 0011677 300.7137 176.3670 12.53600779788120 FO-29 1 24278U 96046B 13346.66825816 .00000001 00000-0 34862-4 0 2628 2 24278 098.5307 021.1448 0351324 061.6302 082.5666 13.53011694855445 SO-33 1 25509U 98061B 13345.54022697 .00000485 00000-0 81772-4 0 6461 2 25509 031.4334 143.3547 0350770 270.7553 156.0645 14.29259195790289 RS-22 1 27939U 03042A 13346.83914941 .00001480 00000-0 28603-3 0 317 2 27939 097.7996 165.4164 0013324 344.8575 015.2243 14.64734224545441 VO-52 1 28650U 05017B 13346.78552589 .00003282 00000-0 39339-3 0 6048 2 28650 097.5618 356.2093 0026859 054.9567 357.2115 14.84461041465577 HO-68 1 36122U 09072B 13346.66600607 -.00000044 00000-0 00000 0 0 1417 2 36122 100.2809 039.0068 0007268 305.9414 054.1027 13.16309704191892 AO-73 1 39445U 13066AF 13346.14056029 .00003320 00000-0 46002-3 0 89 2 39445 097.7977 058.1032 0064492 128.9994 231.7074 14.77202057 1414 UO-11 1 14781U 84021B 13346.13452925 .00001048 00000-0 14141-3 0 3603 2 14781 097.8804 044.6916 0009987 075.0130 285.2187 14.81169011600278 AO-16 1 20439U 90005D 13345.87816743 .00000235 00000-0 10296-3 0 9049 2 20439 098.4907 281.9265 0010637 359.6172 036.7473 14.32247726247674 LO-19 1 20442U 90005G 13345.60429140 .00000222 00000-0 97877-4 0 8423 2 20442 098.4607 282.8867 0011388 349.3978 010.6965 14.32454446247820 AO-27 1 22825U 93061C 13346.74945207 .00000212 00000-0 10000-3 0 5471 2 22825 098.6412 289.0619 0009467 122.1081 300.4586 14.29626483 54142 IO-26 1 22826U 93061D 13346.77794726 .00000246 00000-0 11237-3 0 3044 2 22826 098.6354 289.3421 0010047 115.7405 279.2780 14.29917290 54289 GO-32 1 25397U 98043D 13346.88176737 .00000140 00000-0 79956-4 0 2284 2 25397 098.4425 307.1008 0002322 119.7450 293.2726 14.23383774801366 NO-44 1 26931U 01043C 13346.87070442 .00000249 00000-0 12844-3 0 4877 2 26931 067.0506 158.8635 0006227 262.9729 097.0664 14.30002792636967 SO-50 1 27607U 02058C 13346.60283819 .00001321 00000-0 22314-3 0 2457 2 27607 064.5580 080.8821 0032016 087.4644 015.1027 14.73258741589992 CO-55 1 27844U 03031E 13346.60507127 .00000464 00000-0 23236-3 0 8067 2 27844 098.6998 353.0833 0010761 095.3418 022.5111 14.21334696542075 CO-57 1 27848U 03031J 13346.57024839 .00000394 00000-0 20155-3 0 7485 2 27848 098.7088 352.6575 0010713 101.1771 016.4224 14.21045245541999 AO-51 1 28375U 04025K 13346.89190109 .00000300 00000-0 10210-3 0 7224 2 28375 098.2278 295.4096 0083237 194.7466 234.7721 14.41227721497072 CP3 1 31129U 07012N 13346.09998069 .00001366 00000-0 31394-3 0 6225 2 31129 097.9139 328.8747 0098490 233.0502 186.4786 14.54059662352844 CO-65 1 32785U 08021C 13346.83921678 .00002928 00000-0 35355-3 0 8137 2 32785 097.7288 039.0886 0015554 083.3068 335.0112 14.84430062304374 PRISM 1 33493U 09002B 13346.72593918 .00005903 00000-0 65970-3 0 4514 2 33493 098.2343 149.9119 0017506 335.2975 024.7424 14.87247230264441 SOHLA-1 1 33496U 09002E 13345.83128181 .00000694 00000-0 12277-3 0 2213 2 33496 098.1514 101.5947 0007772 116.3436 046.3001 14.70488406261970 TISAT-1 1 36799U 10035E 13346.76915412 .00004451 00000-0 53791-3 0 7153 2 36799 098.0272 072.5300 0013823 203.7489 156.3119 14.84180336185054 STUDSAT 1 36801U 10035G 13344.87274661 .00016973 00000-0 17111-2 0 7293 2 36801 098.0400 075.6337 0011061 187.6997 311.0967 14.91149204185015 ALMASAT-1 1 38078U 12006B 13346.50964956 .00029417 00000-0 66243-3 0 8723 2 38078 069.4757 144.3155 0658224 277.1488 075.5292 14.34871132 94729 XATCOBEO 1 38082U 12006F 13346.68439492 .00142581 68294-5 20458-2 0 7569 2 38082 069.4679 093.3057 0463198 249.4529 105.6404 14.85153120 96136 CUBEBUG-1 1 39153U 13018D 13346.82662292 .00002282 00000-0 33136-3 0 6640 2 39153 098.0608 062.4695 0017165 227.3738 132.6022 14.76892191 34043 ESTCUBE-1 1 39161U 13021C 13346.67672926 .00001808 00000-0 31428-3 0 6343 2 39161 098.1170 063.8976 0008852 268.6579 091.3614 14.69346957 32208 NOAA-10 1 16969U 86073A 13346.50378385 .00000175 00000-0 88278-4 0 5986 2 16969 098.5298 010.3157 0013271 085.2097 083.2176 14.27692835417383 NOAA-11 1 19531U 88089A 13346.34474861 .00000144 00000-0 96164-4 0 6228 2 19531 098.6989 065.0744 0012319 112.3252 247.9229 14.15043584301316 NOAA-12 1 21263U 91032A 13346.53570053 .00000121 00000-0 69537-4 0 825 2 21263 098.6819 010.3724 0014662 064.4165 051.2992 14.25608000173969 MET-3/5 1 21655U 91056A 13346.16557306 -.00000432 00000-0 -11542-2 0 8535 2 21655 082.5562 128.5613 0013780 048.9346 311.2964 13.17055874 73364 MET-2/21 1 22782U 93055A 13346.87299247 .00000060 00000-0 40553-4 0 9210 2 22782 082.5496 321.1325 0023550 069.8643 353.8203 13.83718524 24355 OKEAN-4 1 23317U 94066A 13346.21077995 .00001985 00000-0 22990-3 0 4003 2 23317 082.5401 243.1270 0020995 002.7905 156.1424 14.84877424 35353 NOAA-14 1 23455U 94089A 13346.48353181 .00000004 00000-0 25208-4 0 5608 2 23455 098.7930 068.1360 0009312 204.9347 283.0812 14.13936713977561 NOAA-15 1 25338U 98030A 13346.87043773 .00000333 00000-0 14125-3 0 9891 2 25338 098.7393 336.2448 0010333 334.9991 025.1176 14.25308203810302 RESURS 1 25394U 98043A 13346.79033345 .00000078 00000-0 51536-4 0 5386 2 25394 098.3872 314.2839 0002515 093.7950 327.1759 14.24353601801785 FENGYUN1 1 25730U 99025A 13345.92026409 .00003564 00000-0 19983-2 0 328 2 25730 098.8948 303.4511 0025564 275.9629 153.3341 14.11085959751101 OKEAN-0 1 25860U 99039A 13345.87647559 .00000935 00000-0 14700-3 0 1194 2 25860 098.0167 306.2099 0000845 085.8589 301.0776 14.74841118774543 NOAA-16 1 26536U 00055A 13346.77913672 .00000204 00000-0 10961-3 0 4767 2 26536 099.0198 041.0934 0010439 356.3863 003.7710 14.12955752681792 NOAA-17 1 27453U 02032A 13346.87286866 .00000287 00000-0 12322-3 0 3811 2 27453 098.3111 351.4568 0011892 007.3731 352.8113 14.24657134596167 NOAA-18 1 28654U 05018A 13346.86341964 .00000403 00000-0 22058-3 0 8702 2 28654 099.1244 317.8717 0015282 067.9210 292.4061 14.11908051441275 NOAA-19 1 33591U 09005A 13346.52310135 .00000200 00000-0 13428-3 0 446 2 33591 098.9248 287.3416 0013115 287.5988 203.6428 14.11601841249650 HUBBLE 1 20580U 90037B 13345.85210262 .00002732 00000-0 17922-3 0 3921 2 20580 028.4686 187.6222 0003448 081.8568 043.7379 15.04333040 96476 ISS 1 25544U 98067A 13346.94692194 .00019426 00000-0 34256-3 0 2236 2 25544 051.6493 302.6018 0001635 240.9858 194.5168 15.50408614862432 CO-58 1 28895U 05043F 13345.77712976 .00001342 00000-0 27961-3 0 6430 2 28895 097.8481 192.2499 0016499 239.5011 120.4563 14.61407370432875 FALCON 1 30776U 07006E 13346.03711782 .00009463 00000-0 53164-3 0 7567 2 30776 035.4287 189.2789 0001341 354.0002 139.0341 15.12640017372348 MAST 1 31126U 07012K 13346.70794838 .00000995 00000-0 22929-3 0 9222 2 31126 097.8954 332.5953 0092247 215.2573 195.4222 14.54848711353274 CAPE1 1 31130U 07012P 13346.18802459 .00001335 00000-0 30826-3 0 9266 2 31130 097.9151 328.5607 0099048 233.9138 125.2857 14.53857017352632 COMPASS 1 32787U 08021E 13346.72639246 .00005175 00000-0 59089-3 0 8029 2 32787 097.7308 040.5175 0015660 078.4466 281.8507 14.86405141304471 AAUSAT2 1 32788U 08021F 13346.81003886 .00006253 00000-0 70321-3 0 7877 2 32788 097.7316 041.3832 0015175 077.4910 282.8003 14.86953522304534 DO-64 1 32789U 08021G 13346.82885699 .00010671 00000-0 11004-2 0 8242 2 32789 097.7485 046.3310 0014061 068.3097 356.4093 14.90319178304711 CO-66 1 32791U 08021J 13346.81515512 .00004460 00000-0 52306-3 0 7810 2 32791 097.7305 039.7125 0016256 080.2535 345.9273 14.85367593304387 RS-30 1 32953U 08025A 13346.82301243 .00000010 00000-0 00000 0 0 4600 2 32953 082.5018 317.0995 0017979 200.0650 159.9725 12.43040445252103 METEOR-M 1 35865U 09049A 13346.75106057 .00000009 00000-0 23421-4 0 689 2 35865 098.5783 034.5657 0001811 291.4363 068.6620 14.21901077219842 RS-38 1 35869U 09049E 13346.75271922 .00000071 00000-0 51288-4 0 239 2 35869 098.5720 034.4284 0003952 280.2300 079.8436 14.22163512219874 JUGNU 1 37839U 11058B 13346.23225558 .00000503 00000-0 12740-3 0 5209 2 37839 019.9620 307.9387 0019272 084.3190 044.7399 14.12218747112098 SRMSAT 1 37841U 11058D 13346.32589701 .00000478 00000-0 11922-3 0 5195 2 37841 019.9730 322.9576 0012100 032.8511 110.8514 14.10277231111957 RAX-2 1 37853U 11061D 13346.72824230 .00011795 00000-0 85268-3 0 6688 2 37853 101.7029 283.2313 0227297 234.7485 255.5151 14.85886948114935 AUBIESAT 1 37854U 11061E 13346.65502551 .00011691 00000-0 82502-3 0 6537 2 37854 101.7070 284.4012 0226519 232.9872 252.4281 14.86826458114950 HRBE 1 37855U 11061F 13345.81163696 .00009134 00000-0 65192-3 0 6623 2 37855 101.7063 282.7698 0228089 236.2424 148.4586 14.86348779114810 RS-39 1 38051U 11062C 13346.79531375 .00041865 00000-0 10475-2 0 572 2 38051 051.6340 064.9155 0008069 196.8125 252.2682 15.39652811105221 E-STAR 1 38079U 12006C 13346.15483006 .00084889 44372-5 13931-2 0 6729 2 38079 069.4758 109.3311 0531210 258.0802 096.0640 14.68289157 95654 GOLIAT 1 38085U 12006J 13346.74606775 .00083798 43757-5 14062-2 0 6204 2 38085 069.4755 111.7632 0543418 259.3250 094.6337 14.65270182 95635 HORYU-2 1 38340U 12025D 13346.09454124 .00003070 00000-0 50219-3 0 6968 2 38340 098.2409 295.5463 0013631 051.3172 308.9257 14.71515022 84272 RS-40 1 38736U 12041D 13346.37589011 .00000010 00000-0 00000 0 0 4485 2 38736 082.4821 044.0278 0020192 298.4473 061.4583 12.42874554 62388 PROITERES 1 38756U 12047B 13346.74237742 .00001319 00000-0 20628-3 0 3850 2 38756 098.2411 066.9588 0011366 257.4506 102.5435 14.74503781 67704 RAIKO 1 38852U 98067CN 13218.07382584 .24681979 12625-4 36599-3 0 3409 2 38852 051.6160 184.0336 0004489 261.9162 100.6538 16.48474690 47849 BEESAT-3 1 39134U 13015E 13346.63635436 .00008780 00000-0 67764-3 0 4466 2 39134 064.8697 007.5558 0009517 334.3018 025.7626 15.02052486 35612 BEESAT-2 1 39136U 13015G 13346.44863848 .00007677 00000-0 59762-3 0 4358 2 39136 064.8688 008.2327 0009267 332.5533 027.5098 15.01832345 35588 CAPE-2 1 39380U 13064A 13345.83535986 .00006103 00000-0 27767-3 0 386 2 39380 040.5158 123.4496 0002985 085.6327 274.4832 15.21027329 3322 TRLBLAZER 1 39382U 13064C 13346.35185866 .00045648 00000-0 19373-2 0 340 2 39382 040.5047 120.3003 0000735 069.6696 290.4291 15.22294992 3390 TECHEDST3 1 39415U 98067DD 13346.75484684 .00324721 00000-0 37881-2 0 488 2 39415 051.6504 302.8341 0004337 104.3637 324.5009 15.60002844 3485 ZACUBE-1 1 39417U 13066B 13346.75027956 .00002795 00000-0 38862-3 0 699 2 39417 097.7980 058.6939 0064494 126.9929 233.7213 14.77189506 3160 TRITON-1 1 39427U 13066M 13345.70430492 .00002371 00000-0 40928-3 0 176 2 39427 097.7889 057.2754 0120850 126.3359 234.9115 14.64621373 2947 DELFIN3XT 1 39428U 13066N 13345.94570508 .00003775 00000-0 67168-3 0 192 2 39428 097.7869 057.4215 0132304 125.2104 236.1606 14.62061841 2960 GOMX-1 1 39430U 13066Q 13346.78594679 .00002547 00000-0 49513-3 0 384 2 39430 097.7829 058.0151 0159435 122.3944 239.2795 14.56089424 3086 $50SAT 1 39436U 13066W 13346.85654423 .00016786 00000-0 19967-2 0 167 2 39436 097.8003 059.0200 0031451 140.9825 219.3964 14.84094617 3183 /EX
participants (1)
-
Ray Hoad